Location: Newark
(44.1906°N, 75.9681°W)
Time: 20:03:07
(UTC+00:00)

Envisat - Pass Details

Date: 30 January 2020
Orbit: 764 x 766 km, 98.1° (Epoch: 19 February)

Event Time Altitude Azimuth Distance (km) Brightness Sun altitude
Rises 11:26:14 0° 17° (NNE) 3,241 6.3 -10.7°
Reaches altitude 10° 11:28:37 10° 22° (NNE) 2,311 5.6 -10.2°
Maximum altitude 11:33:36 54° 100° (E) 927 3.9 -9.4°
Drops below altitude 10° 11:38:33 10° 177° (S) 2,293 5.7 -8.5°
Sets 11:40:53 0° 182° (S) 3,215 6.4 -8.1°
